Regional Weather Roundup
Issued by NWS

Home | Current Version | Previous Version | Text Only | Print | Product List | Glossary On
Versions: 1 2 3 4 5 6 7 8 9 10 11 12 13 14 15 16 17 18 19 20 21 22 23 24 25 26 27 28 29 30 31 32 33 34 35 36 37 38 39 40 41 42 43 44 45 46 47 48 49 50
000
ASUS43 KMKX 280700
RWRWI

WISCONSIN REGIONAL WEATHER ROUNDUP
NATIONAL WEATHER SERVICE MILWAUKEE/SULLIVAN WI
200 AM CDT SUN MAY 28 2017

NOTE: "FAIR" INDICATES FEW OR NO CLOUDS BELOW 12,000 FEET WITH NO
SIGNIFICANT WEATHER AND/OR OBSTRUCTIONS TO VISIBILITY.

WIZ001-002-006>008-014>016-023>028-280800-
NORTHWEST WISCONSIN

CITY           SKY/WX    TMP DP  RH WIND       PRES   REMARKS
SUPERIOR ARPT  NOT AVBL
ASHLAND        CLOUDY    57  48  72 S6        29.76S
HAYWARD        CLOUDY    58  49  72 CALM      29.77F
SIREN          CLOUDY    60  48  62 CALM      29.77F
CUMBERLAND     CLOUDY    54  48  82 S3        29.79F
RICE LAKE      CLOUDY    56  52  86 CALM      29.81S
CHETEK         CLOUDY    55  50  85 CALM      29.80S
LADYSMITH      CLOUDY    56  51  82 CALM      29.81F
EAU CLAIRE     CLOUDY    56  51  84 SW3       29.79S
MENOMONIE      CLOUDY    56  52  85 E3        29.81S
NEW RICHMOND   CLOUDY    59  46  61 SW6       29.79F
OSCEOLA        CLOUDY    61  48  63 S6        29.81S
$$

WIZ003>005-009-010-017-018-280800-
NORTH CENTRAL WISCONSIN

CITY           SKY/WX    TMP DP  RH WIND       PRES   REMARKS
MANITOWISH WTR CLOUDY    55  52  88 CALM      29.80F
ARBOR VITAE    CLOUDY    59  51  74 CALM      29.80S
WOODRUFF       CLOUDY    59  51  74 CALM      29.80S
RHINELANDER    CLOUDY    52  50  93 W5        29.81F
EAGLE RIVER    CLOUDY    52  47  82 CALM      29.81S
LAND O LAKES   CLOUDY    52  50  94 CALM      29.82S
PHILLIPS       CLOUDY    55  50  83 CALM      29.80S
TOMAHAWK       CLOUDY    48  47  96 CALM      29.82S
MEDFORD        CLOUDY    56  49  78 CALM      29.81F
MERRILL        CLOUDY    57  52  83 CALM      29.81F
$$

WIZ029-030-035-036-043>047-280800-
CENTRAL WISCONSIN

CITY           SKY/WX    TMP DP  RH WIND       PRES   REMARKS
WAUSAU         CLOUDY    59  52  77 W5        29.79F
MOSINEE        CLOUDY    57  52  82 W5        29.83R
MARSHFIELD     CLOUDY    58  51  78 CALM      29.80F
STEVENS POINT  CLOUDY    56  53  89 CALM      29.82S
WAUPACA        CLOUDY    62  54  73 CALM      29.80F
WAUTOMA        LGT RAIN  60  54  80 CALM      29.80F
WISC RAPIDS    CLOUDY    56  55  97 CALM      29.81F
CAMP DOUGLAS   NOT AVBL
$$

WIZ011>013-019>022-031-037>040-048>050-280800-
NORTHEAST WISCONSIN

CITY           SKY/WX    TMP DP  RH WIND       PRES   REMARKS
ANTIGO         CLOUDY    57  52  82 W3        29.82S
SHAWANO        CLOUDY    62  51  67 CALM      29.80S
OCONTO         CLOUDY    56  55  94 CALM      29.79S
STURGEON BAY   PTCLDY    61  53  75 SW6       29.79F
GREEN BAY      LGT RAIN  60  58  92 E3        29.80F
MANITOWOC      NOT AVBL
APPLETON       CLOUDY    59  52  77 N5        29.78F
CLINTONVILLE   CLOUDY    59  52  77 SE3       29.80S
OSHKOSH        CLOUDY    62  53  72 N8        29.79F
$$

WIZ032>034-041-042-053>061-280800-
SOUTHWEST WISCONSIN

CITY           SKY/WX    TMP DP  RH WIND       PRES   REMARKS
LA CROSSE      CLOUDY    59  57  93 S3        29.81F
SPARTA         CLOUDY    55  54  99 CALM      29.83S
VIROQUA        CLOUDY    57  52  82 MISG      29.83S
BOSCOBEL       CLOUDY    60  58  92 CALM      29.83S
PRAIRIE DU CHI CLOUDY    60  57  91 CALM      29.82F
PLATTEVILLE    CLOUDY    61  61 100 N3        29.82S
$$

WIZ056-057-062-063-064-067-068-280800-
SOUTH CENTRAL WISCONSIN

CITY           SKY/WX    TMP DP  RH WIND       PRES   REMARKS
REEDSBURG      CLOUDY    59  54  82 CALM      29.81F
BARABOO/DELLS  CLOUDY    58  54  85 CALM      29.82S
LONE ROCK      NOT AVBL
MINERAL POINT  CLOUDY    61  61 100 N3        29.82S
MADISON        CLOUDY    61  55  81 CALM      29.80S
MIDDLETON      CLOUDY    62  57  84 CALM      29.82S
WATERTOWN      CLOUDY    61  61 100 CALM      29.80F
MONROE         MOCLDY    63  57  82 E5        29.80F
JANESVILLE     CLOUDY    64  61  88 CALM      29.79F
$$

WIZ051-052-058>065-066-070>072-280800-
SOUTHEAST WISCONSIN

CITY           SKY/WX    TMP DP  RH WIND       PRES   REMARKS
MILWAUKEE      CLOUDY    63  56  78 SE5       29.80F
WAUKESHA       CLOUDY    59  54  82 SW3       29.82S
MILWAUKEE/TIMM   N/A     63  52  67 CALM      29.81F
RACINE         CLOUDY    60  51  72 S7        29.82F
KENOSHA        CLOUDY    59  51  75 S7        29.81F
FOND DU LAC    CLOUDY    63  56  78 N5        29.79F
SHEBOYGAN      CLOUDY    63  57  81 NW6       29.80F
WEST BEND      CLOUDY    61  55  82 CALM      29.80F
JUNEAU         CLOUDY    63  58  83 CALM      29.81F
$$

LSZ147-162-280800-
LAKE SUPERIOR

STATION/POSITION TIME  TEMP    WIND        PRES    WAVE
                       AIR SEA DIR/SP/G            HT/PER
                 (UTC) (F)     (DEG/KT/KT) (MB)    (FT/S)
W MID LAKE BUOY  0550   45 37  210/ 10/ 10 1007.4F   0
DEVILS ISLAND    0600   62     210/ 10/ 12 1006.9F
PORT WING        0640   63     180/  6/  8 1007.1F
SAXON HARBOR     0640   61     190/  6/ 10 1007.5S
$$

LMZ867-665-643>646-280800-
LAKE MICHIGAN

STATION/POSITION TIME  TEMP    WIND        PRES    WAVE
                       AIR SEA DIR/SP/G            HT/PER
                 (UTC) (F)     (DEG/KT/KT) (MB)    (FT/S)
CHAMBERS ISLAND  0640   60     200/  5/  8 1008.1S
N MID LAKE BUOY  0550   46 42  170/  8/ 10 1009.7F   1
NORTHPORT PIER   0640   51     140/  7/  8 1008.5R
SISTER BAY       0536   62        CALM       N/A
ALGOMA LAKESHORE 0531             CALM       N/A
KEWAUNEE LAKESHO 0630   60     300/  5/  5 1008.8F
SHEBOYGAN LAKESH 0600   64     200/  6/  6 1008.9F
PORT WASHINGTON  0640   63     280/  2/  4 1009.8F
ATWATER BUOY     0509   52      60/  4/  4 1009.6F
MILWAUKEE LAKESH 0630   58      70/  2/  2   N/A
S MID LAKE BUOY  0550   53 49  110/  4/  4 1009.9F   0
KENOSHA   LAKESH 0600   58     180/  4/  5 1009.8
$$

TC  - TEMPERATURE IN CELSIUS
VSB - VISIBILITY IN STATUTE MILES
WCI - WIND CHILL INDEX
HX  - HEAT INDEX





USA.gov is the U.S. government's official web portal to all federal, state and local government web resources and services.